| time (UTC) | temp C | wind direction | speed KPH | gust KPH | rain 1hr cm | rain 24hr cm | rain mn cm | humidity % | barometer mb |
| 20260505224410 | 10 | 60 | 0.0 | 0.0 | 0.00 | 0.00 | 0.00 | 99 | 1008.3 |
| 20260505223409 | 10 | 60 | 0.0 | 0.0 | 0.00 | 0.00 | 0.00 | 99 | 1008.4 |
| 20260505222409 | 10 | 60 | 0.0 | 1.6 | 0.00 | 0.00 | 0.00 | 99 | 1008.4 |
| 20260505221409 | 10 | 85 | 0.0 | 0.0 | 0.00 | 0.00 | 0.00 | 99 | 1008.4 |
| 20260505220409 | 10 | 85 | 0.0 | 0.0 | 0.00 | 0.00 | 0.00 | 99 | 1008.4 |
| 20260505215409 | 10 | 85 | 0.0 | 0.0 | 0.00 | 0.00 | 0.00 | 99 | 1008.5 |
| 20260505214409 | 10 | 85 | 0.0 | 0.0 | 0.00 | 0.00 | 0.00 | 99 | 1008.6 |
| 20260505213409 | 10 | 85 | 0.0 | 0.0 | 0.00 | 0.00 | 0.00 | 99 | 1008.7 |
| 20260505212409 | 10 | 85 | 0.0 | 0.0 | 0.00 | 0.00 | 0.00 | 99 | 1008.6 |
| 20260505211409 | 11 | 85 | 0.0 | 0.0 | 0.00 | 0.00 | 0.00 | 99 | 1008.6 |
| 20260505210409 | 11 | 85 | 0.0 | 0.0 | 0.00 | 0.00 | 0.00 | 99 | 1008.6 |
| 20260505205409 | 11 | 85 | 0.0 | 0.0 | 0.00 | 0.00 | 0.00 | 99 | 1008.6 |
| 20260505204409 | 11 | 85 | 0.0 | 0.0 | 0.00 | 0.00 | 0.00 | 99 | 1008.6 |
| 20260505203409 | 11 | 85 | 0.0 | 0.0 | 0.00 | 0.00 | 0.00 | 99 | 1008.6 |
| 20260505202409 | 11 | 85 | 0.0 | 0.0 | 0.00 | 0.00 | 0.00 | 99 | 1008.6 |
| 20260505201409 | 11 | 85 | 0.0 | 0.0 | 0.00 | 0.00 | 0.00 | 99 | 1008.5 |
| 20260505200409 | 11 | 85 | 0.0 | 0.0 | 0.00 | 0.00 | 0.00 | 99 | 1008.3 |
| 20260505195409 | 11 | 85 | 0.0 | 0.0 | 0.00 | 0.00 | 0.00 | 99 | 1008.3 |
| 20260505194409 | 11 | 85 | 0.0 | 0.0 | 0.00 | 0.00 | 0.00 | 99 | 1008.3 |
| 20260505193409 | 11 | 85 | 0.0 | 0.0 | 0.00 | 0.00 | 0.00 | 99 | 1008.2 |
| 20260505192410 | 11 | 85 | 0.0 | 0.0 | 0.00 | 0.00 | 0.00 | 99 | 1008.2 |
| 20260505191409 | 11 | 85 | 0.0 | 0.0 | 0.00 | 0.00 | 0.00 | 99 | 1008.1 |
| 20260505190409 | 11 | 85 | 0.0 | 0.0 | 0.00 | 0.00 | 0.00 | 99 | 1008.0 |
| 20260505185409 | 12 | 85 | 0.0 | 0.0 | 0.00 | 0.00 | 0.00 | 99 | 1008.0 |
| 20260505184409 | 12 | 85 | 0.0 | 0.0 | 0.00 | 0.00 | 0.00 | 99 | 1008.0 |
| 20260505183409 | 12 | 85 | 0.0 | 0.0 | 0.00 | 0.00 | 0.00 | 99 | 1008.0 |
| 20260505182410 | 12 | 85 | 0.0 | 0.0 | 0.00 | 0.00 | 0.00 | 99 | 1008.0 |
| 20260505181409 | 12 | 85 | 0.0 | 0.0 | 0.00 | 0.00 | 0.00 | 99 | 1008.0 |
| 20260505180409 | 12 | 85 | 0.0 | 0.0 | 0.00 | 0.00 | 0.00 | 99 | 1008.0 |
| 20260505175409 | 12 | 85 | 0.0 | 0.0 | 0.00 | 0.00 | 0.00 | 99 | 1008.0 |
| 20260505174409 | 12 | 85 | 0.0 | 4.8 | 0.00 | 0.00 | 0.00 | 99 | 1007.9 |
| 20260505173409 | 12 | 70 | 0.0 | 4.8 | 0.00 | 0.00 | 0.00 | 98 | 1008.0 |
| 20260505172409 | 12 | 70 | 0.0 | 4.8 | 0.00 | 0.00 | 0.00 | 98 | 1008.0 |
| 20260505171409 | 12 | 70 | 0.0 | 0.0 | 0.00 | 0.00 | 0.00 | 99 | 1008.0 |
| 20260505170409 | 12 | 70 | 0.0 | 6.4 | 0.00 | 0.00 | 0.00 | 99 | 1008.0 |
| 20260505165409 | 12 | 50 | 0.0 | 3.2 | 0.00 | 0.00 | 0.00 | 99 | 1008.0 |
| 20260505164409 | 12 | 50 | 0.0 | 1.6 | 0.00 | 0.00 | 0.00 | 99 | 1008.1 |
| 20260505163409 | 12 | 50 | 0.0 | 4.8 | 0.00 | 0.00 | 0.00 | 98 | 1008.2 |
| 20260505162409 | 12 | 65 | 0.0 | 9.7 | 0.00 | 0.00 | 0.00 | 98 | 1008.3 |
| 20260505161409 | 13 | 45 | 0.0 | 8.0 | 0.00 | 0.00 | 0.00 | 98 | 1008.3 |
| 20260505160409 | 13 | 50 | 0.0 | 4.8 | 0.00 | 0.00 | 0.00 | 99 | 1008.3 |
| 20260505152410 | 13 | 100 | 0.0 | 6.4 | 0.00 | 0.00 | 0.00 | 99 | 1008.4 |
| 20260505151409 | 13 | 80 | 0.0 | 4.8 | 0.00 | 0.00 | 0.00 | 99 | 1008.5 |
| 20260505150409 | 13 | 65 | 0.0 | 1.6 | 0.00 | 0.00 | 0.00 | 99 | 1008.5 |
| 20260505140409 | 14 | 80 | 0.0 | 9.7 | 0.00 | 0.00 | 0.00 | 97 | 1008.8 |
| 20260505124409 | 14 | 80 | 0.0 | 8.0 | 0.00 | 0.00 | 0.00 | 98 | 1009.3 |
| 20260505123409 | 14 | 75 | 0.0 | 4.8 | 0.00 | 0.00 | 0.00 | 99 | 1009.2 |
| 20260505122410 | 13 | 100 | 0.0 | 1.6 | 0.00 | 0.00 | 0.00 | 99 | 1009.3 |
| 20260505121409 | 12 | 100 | 0.0 | 0.0 | 0.00 | 0.00 | 0.00 | 99 | 1009.4 |
| 20260505120409 | 12 | 100 | 0.0 | 1.6 | 0.00 | 0.00 | 0.00 | 99 | 1009.4 |
| 20260505115409 | 12 | 60 | 1.6 | 8.0 | 0.00 | 0.00 | 0.00 | 99 | 1009.5 |
| 20260505114409 | 12 | 75 | 0.0 | 4.8 | 0.00 | 0.00 | 0.00 | 99 | 1009.6 |
| 20260505113409 | 12 | 15 | 0.0 | 9.7 | 0.00 | 0.00 | 0.00 | 99 | 1009.7 |
| 20260505112409 | 11 | 125 | 0.0 | 9.7 | 0.00 | 0.00 | 0.00 | 99 | 1009.7 |
| 20260505111409 | 11 | 80 | 0.0 | 0.0 | 0.00 | 0.00 | 0.00 | 99 | 1009.8 |
| 20260505110409 | 11 | 80 | 0.0 | 9.7 | 0.00 | 0.00 | 0.00 | 99 | 1009.9 |
| 20260505101410 | 11 | 75 | 0.0 | 9.7 | 0.00 | 0.00 | 0.00 | 99 | 1009.9 |
| 20260505100409 | 11 | 110 | 0.0 | 3.2 | 0.00 | 0.00 | 0.00 | 99 | 1009.9 |
| 20260505095409 | 12 | 75 | 0.0 | 4.8 | 0.00 | 0.00 | 0.00 | 99 | 1009.8 |
| 20260505094409 | 12 | 100 | 0.0 | 3.2 | 0.00 | 0.00 | 0.00 | 99 | 1009.8 |
| 20260505093409 | 12 | 80 | 0.0 | 11.3 | 0.00 | 0.00 | 0.00 | 99 | 1009.9 |
| 20260505092409 | 12 | 105 | 1.6 | 4.8 | 0.00 | 0.00 | 0.00 | 99 | 1009.9 |
| 20260505091409 | 12 | 75 | 0.0 | 8.0 | 0.00 | 0.00 | 0.00 | 99 | 1009.9 |
| 20260505090409 | 11 | 80 | 0.0 | 3.2 | 0.00 | 0.00 | 0.00 | 99 | 1010.0 |
| 20260505085410 | 11 | 35 | 0.0 | 1.6 | 0.00 | 0.00 | 0.00 | 99 | 1010.0 |
| 20260505084409 | 11 | 50 | 0.0 | 4.8 | 0.00 | 0.00 | 0.00 | 99 | 1010.0 |
| 20260505083409 | 11 | 80 | 0.0 | 1.6 | 0.00 | 0.00 | 0.00 | 99 | 1010.0 |
| 20260505082409 | 11 | 75 | 0.0 | 3.2 | 0.00 | 0.00 | 0.00 | 99 | 1009.9 |
| 20260505081409 | 11 | 100 | 0.0 | 9.7 | 0.00 | 0.00 | 0.00 | 99 | 1009.9 |
| 20260505080409 | 11 | 90 | 0.0 | 4.8 | 0.00 | 0.00 | 0.00 | 99 | 1010.0 |
| 20260505075409 | 11 | 70 | 0.0 | 8.0 | 0.00 | 0.00 | 0.00 | 99 | 1010.0 |
| 20260505074409 | 11 | 85 | 0.0 | 8.0 | 0.00 | 0.00 | 0.00 | 99 | 1009.9 |
| 20260505073409 | 11 | 60 | 0.0 | 4.8 | 0.00 | 0.00 | 0.00 | 99 | 1009.9 |
| 20260505072409 | 11 | 115 | 0.0 | 1.6 | 0.00 | 0.00 | 0.00 | 99 | 1009.9 |
| 20260505071410 | 11 | 135 | 0.0 | 0.0 | 0.00 | 0.00 | 0.00 | 99 | 1009.9 |
| 20260505070409 | 11 | 135 | 0.0 | 0.0 | 0.00 | 0.00 | 0.00 | 99 | 1009.9 |
| 20260505065409 | 11 | 135 | 0.0 | 0.0 | 0.00 | 0.00 | 0.00 | 99 | 1009.9 |
| 20260505064409 | 11 | 135 | 0.0 | 0.0 | 0.00 | 0.00 | 0.00 | 99 | 1009.9 |
| 20260505063409 | 11 | 135 | 0.0 | 0.0 | 0.00 | 0.00 | 0.00 | 99 | 1009.9 |
| 20260505062409 | 11 | 135 | 0.0 | 0.0 | 0.00 | 0.00 | 0.00 | 99 | 1010.1 |
| 20260505061409 | 11 | 135 | 0.0 | 0.0 | 0.00 | 0.00 | 0.00 | 99 | 1010.1 |
| 20260505060410 | 11 | 135 | 0.0 | 0.0 | 0.00 | 0.00 | 0.00 | 99 | 1010.1 |
| 20260505055410 | 11 | 135 | 0.0 | 0.0 | 0.00 | 0.00 | 0.00 | 99 | 1010.1 |
| 20260505054409 | 11 | 135 | 0.0 | 3.2 | 0.00 | 0.00 | 0.00 | 99 | 1010.1 |
| 20260505053409 | 11 | 105 | 0.0 | 0.0 | 0.00 | 0.00 | 0.00 | 99 | 1010.0 |
| 20260505052409 | 11 | 105 | 0.0 | 0.0 | 0.00 | 0.00 | 0.00 | 99 | 1010.0 |
| 20260505051409 | 11 | 105 | 0.0 | 0.0 | 0.00 | 0.00 | 0.00 | 99 | 1009.7 |
| 20260505050409 | 11 | 105 | 0.0 | 0.0 | 0.00 | 0.00 | 0.00 | 99 | 1009.7 |
| 20260505041414 | 11 | 105 | 0.0 | 1.6 | 0.00 | 0.00 | 0.00 | 99 | 1010.0 |
| 20260505040409 | 11 | 155 | 0.0 | 0.0 | 0.00 | 0.00 | 0.00 | 99 | 1010.0 |
| 20260505035409 | 11 | 155 | 0.0 | 0.0 | 0.00 | 0.00 | 0.00 | 99 | 1010.0 |
| 20260505034410 | 11 | 155 | 0.0 | 0.0 | 0.00 | 0.00 | 0.00 | 99 | 1010.0 |
| 20260505033409 | 11 | 155 | 0.0 | 0.0 | 0.00 | 0.00 | 0.00 | 99 | 1010.0 |
| 20260505032409 | 12 | 155 | 0.0 | 0.0 | 0.00 | 0.00 | 0.00 | 99 | 1010.0 |
| 20260505031409 | 12 | 155 | 0.0 | 0.0 | 0.00 | 0.00 | 0.00 | 99 | 1010.1 |
| 20260505030409 | 12 | 155 | 0.0 | 0.0 | 0.00 | 0.00 | 0.00 | 99 | 1010.1 |
| 20260505025410 | 12 | 155 | 0.0 | 0.0 | 0.00 | 0.00 | 0.00 | 99 | 1010.1 |
| 20260505024409 | 12 | 155 | 0.0 | 0.0 | 0.00 | 0.00 | 0.00 | 99 | 1010.0 |
| 20260505023409 | 12 | 155 | 0.0 | 0.0 | 0.00 | 0.00 | 0.00 | 99 | 1010.2 |
| 20260505022409 | 12 | 155 | 0.0 | 0.0 | 0.00 | 0.00 | 0.00 | 99 | 1010.3 |
| 20260505021409 | 12 | 155 | 0.0 | 0.0 | 0.00 | 0.00 | 0.00 | 99 | 1010.2 |
| 20260505020409 | 12 | 155 | 0.0 | 1.6 | 0.00 | 0.00 | 0.00 | 99 | 1010.2 |
| 20260505015409 | 12 | 125 | 1.6 | 1.6 | 0.00 | 0.00 | 0.00 | 99 | 1010.1 |
| 20260505014409 | 12 | 125 | 0.0 | 0.0 | 0.00 | 0.00 | 0.00 | 99 | 1010.1 |
| 20260505013409 | 12 | 125 | 0.0 | 1.6 | 0.00 | 0.00 | 0.00 | 99 | 1010.1 |
| 20260505012409 | 12 | 90 | 0.0 | 3.2 | 0.00 | 0.00 | 0.00 | 99 | 1010.0 |
| 20260505011409 | 12 | 75 | 0.0 | 4.8 | 0.00 | 0.00 | 0.00 | 99 | 1010.1 |
| 20260505010409 | 12 | 70 | 1.6 | 3.2 | 0.00 | 0.00 | 0.00 | 99 | 1010.2 |
| 20260505005409 | 12 | 75 | 0.0 | 4.8 | 0.00 | 0.00 | 0.00 | 99 | 1010.4 |
| 20260505004409 | 13 | 45 | 0.0 | 1.6 | 0.00 | 0.00 | 0.00 | 99 | 1010.4 |
| 20260505003409 | 13 | 40 | 0.0 | 1.6 | 0.00 | 0.00 | 0.00 | 99 | 1010.4 |
| 20260505002409 | 13 | 30 | 0.0 | 1.6 | 0.00 | 0.00 | 0.00 | 99 | 1010.4 |
| 20260505001409 | 13 | 130 | 0.0 | 1.6 | 0.00 | 0.00 | 0.00 | 99 | 1010.5 |
| 20260505000409 | 13 | 130 | 0.0 | 3.2 | 0.00 | 0.00 | 0.00 | 99 | 1010.5 |
| 20260504235410 | 13 | 135 | 0.0 | 3.2 | 0.00 | 0.00 | 0.00 | 99 | 1010.5 |
| 20260504234409 | 13 | 0 | 0.0 | 0.0 | 0.00 | 0.00 | 0.00 | 99 | 1010.6 |
| 20260504233409 | 13 | 0 | 0.0 | 0.0 | 0.00 | 0.00 | 0.00 | 99 | 1010.6 |
| 20260504232409 | 13 | 0 | 0.0 | 0.0 | 0.00 | 0.00 | 0.00 | 99 | 1010.6 |
| 20260504231409 | 13 | 0 | 0.0 | 0.0 | 0.00 | 0.00 | 0.00 | 99 | 1010.7 |
| 20260504230409 | 13 | 0 | 0.0 | 0.0 | 0.00 | 0.00 | 0.00 | 99 | 1010.7 |
| 20260504225409 | 13 | 0 | 0.0 | 0.0 | 0.00 | 0.00 | 0.00 | 99 | 1010.8 |